User: anonymous   Login
Location: Unspecified
(0.0000°N, 0.0000°E)
Time: 00:57:42
(UTC+00:00)
Language:

ONEWEB-0321 - Orbit

View from above orbital plane
View from above orbital plane
View from above satellite
View from above satellite

Ground track
Ground track

The orbit is defined by the following mean orbital elements,

1 49191U          26145.39824904 +.00000000 +00000-0 +34709-3 0 00000
2 49191  87.9173 278.9786 0001617  97.8028 262.3289 13.20770543    01
Epoch (UTC): 25 May 2026 09:33:28
Eccentricity: 0.0001617
inclination: 87.9173°
perigee height: 1181 km
apogee height: 1183 km
right ascension of ascending node: 278.9786°
argument of perigee: 97.8028°
revolutions per day: 13.20770543
mean anomaly at epoch: 262.3289°

The dashed part of the orbit path shows where the satellite is in the earth's shadow,  

DLR